Theta_e
333 334 333 334 334 334 334 334 332 331 331 330 328 329 332 333 331 329 327 327 329 331 331 330 328 327 329 329 329 329 328 329 330 330 329 328 328 329 329 329 328 327
331 333 333 333 333 333 333 334 332 330 330 331 330 328 330 332 332 329 326 327 330 331 331 330 328 329 329 329 329 328 328 329 330 330 329 328 328 329 329 328 328 327
331 333 334 333 332 332 332 333 332 329 328 330 331 330 328 330 331 329 326 328 330 331 331 330 329 330 330 329 328 328 328 329 329 330 329 329 329 328 328 328 328 328
330 333 333 331 331 331 331 332 332 330 328 329 330 330 329 330 331 329 327 328 330 329 330 330 330 330 329 329 329 328 329 329 329 329 328 328 328 328 327 327 327 327
329 330 330 330 331 332 331 332 333 331 329 329 330 330 330 330 330 329 328 329 329 327 328 330 330 330 330 330 330 329 329 329 329 328 328 327 327 327 327 326 327 327
329 330 330 330 331 332 331 331 332 330 328 329 330 329 328 329 329 328 328 329 329 327 327 330 330 330 330 330 329 329 329 329 328 328 328 327 327 327 327 326 326 326
330 331 330 328 329 331 331 331 330 329 328 330 330 329 327 327 327 327 328 330 329 326 325 329 330 329 329 329 329 329 329 328 328 328 328 328 328 327 326 326 326 326
330 331 331 329 329 330 330 330 329 328 329 330 329 328 327 326 325 327 329 330 328 325 326 329 330 328 328 328 328 329 328 328 328 327 328 327 327 326 326 326 326 326
329 329 330 330 330 330 329 329 328 328 330 330 328 326 326 325 325 327 330 329 328 327 327 329 329 328 328 328 328 328 328 327 327 326 326 326 325 326 326 325 326 326
330 328 329 329 329 329 329 329 328 328 329 329 327 325 325 325 325 328 329 327 327 328 328 328 328 328 328 328 327 327 326 326 326 325 325 324 324 325 325 325 325 325
330 329 329 329 328 328 329 329 328 328 328 327 326 325 325 325 325 327 327 325 326 328 326 326 327 327 327 327 327 326 325 326 326 325 325 324 324 325 325 325 325 325
329 329 329 329 329 328 328 329 329 329 328 326 325 325 326 326 326 327 326 325 326 326 325 326 326 326 325 325 326 326 326 326 327 326 326 324 323 323 324 324 324 324
328 328 328 328 328 328 329 329 329 329 328 327 326 326 327 327 327 326 325 325 326 326 326 326 326 324 324 324 325 326 326 325 326 326 325 323 321 322 323 323 323 322
326 326 327 327 327 328 328 329 329 329 328 328 326 325 327 328 326 324 325 326 326 326 326 326 325 324 324 324 325 325 324 324 324 324 324 322 322 322 322 322 323 322
326 326 326 327 327 327 327 329 329 329 329 328 327 326 327 327 325 323 325 326 326 326 326 325 324 324 323 324 324 324 324 323 323 323 323 322 322 321 321 322 322 321
325 325 325 326 326 326 327 328 329 329 328 327 326 325 326 325 324 324 325 325 325 325 325 324 324 323 323 323 323 323 322 322 322 322 322 322 321 321 321 321 320 319
324 325 325 325 325 325 326 328 329 328 327 327 326 324 324 324 325 325 325 324 324 324 323 323 323 323 323 323 323 323 322 321 320 320 321 321 321 321 321 320 319 319
323 324 325 325 325 325 326 327 328 327 327 327 325 324 324 325 325 325 325 324 324 324 323 323 322 323 323 323 323 323 322 321 320 321 321 321 321 321 320 319 319 318
323 324 325 324 325 325 325 326 328 327 326 326 324 324 324 325 325 325 325 324 323 323 323 322 322 323 323 321 321 322 322 322 321 321 321 321 321 320 320 320 320 318
324 324 324 324 324 324 324 325 326 325 324 324 324 323 323 324 325 325 324 323 323 323 323 322 322 322 322 321 320 320 321 322 322 322 321 321 320 320 320 320 320 318
323 323 323 324 324 324 324 324 323 323 323 323 323 323 323 324 324 323 323 323 322 322 322 322 321 321 320 320 320 319 319 320 320 321 321 321 320 320 320 320 320 319
322 322 322 322 323 323 323 324 323 323 322 321 321 322 322 323 322 321 321 323 322 321 322 321 320 319 318 318 318 317 317 318 318 318 319 320 320 319 320 320 320 319
319 320 321 321 321 320 320 322 322 321 320 320 321 321 321 321 321 320 320 321 319 318 318 317 316 316 316 316 315 315 316 318 318 317 317 319 320 319 319 320 320 319
316 318 319 319 320 319 319 320 319 319 319 320 320 320 320 320 320 320 319 318 316 315 315 315 313 312 312 314 316 316 317 317 317 317 317 319 320 319 319 320 320 319
315 316 317 318 319 319 319 318 318 318 319 320 319 319 320 319 319 319 319 318 316 315 315 314 313 310 310 312 313 315 317 318 318 318 318 319 319 319 319 319 319 319
316 317 318 318 319 320 319 318 318 318 318 319 319 319 319 319 318 318 319 317 316 315 315 313 312 312 312 312 312 313 315 317 318 318 318 319 319 320 320 320 319 319
Wind_Speed
30 30 31 32 33 32 29 27 24 24 25 25 25 28 28 28 26 24 23 24 25 25 24 24 24 23 24 23 21 19 18 18 17 17 16 16 16 15 15 15 15 16
27 31 32 30 29 29 27 25 23 23 24 24 24 25 27 28 26 22 22 24 25 23 22 23 24 24 23 23 21 20 20 19 18 17 17 16 15 15 16 15 15 15
23 25 28 28 26 24 24 23 23 22 22 23 24 24 26 27 25 22 21 23 23 21 21 23 24 23 23 22 21 21 20 19 19 18 18 17 16 16 16 15 15 15
24 23 22 23 24 25 25 24 23 23 22 22 23 23 24 24 23 22 22 23 22 21 22 24 24 23 23 21 20 20 20 19 19 19 18 18 17 17 16 16 16 16
26 28 26 23 23 24 24 24 24 23 22 21 21 20 21 21 20 21 23 23 22 20 22 25 24 23 21 20 20 19 19 19 19 18 18 17 18 18 17 17 17 16
26 30 30 26 24 23 23 22 23 23 21 20 20 20 20 20 21 22 23 24 22 21 24 25 23 22 21 19 19 18 18 19 18 17 17 17 18 18 18 17 17 16
25 27 29 30 29 27 24 23 22 21 20 21 20 20 21 21 22 24 25 25 24 23 24 24 22 21 21 19 19 19 18 18 18 17 18 17 17 18 18 17 16 15
23 25 28 31 31 27 24 23 23 20 19 21 22 22 23 22 24 26 26 25 24 24 24 22 21 21 21 20 20 20 19 18 18 18 18 17 16 17 17 17 16 15
21 24 25 26 26 24 21 22 22 21 21 23 24 24 23 23 25 27 26 25 24 25 24 22 22 21 21 21 21 20 20 19 19 18 17 16 15 16 16 16 16 16
19 20 20 20 22 21 19 20 21 22 23 25 26 24 23 23 26 26 25 26 26 25 24 24 23 22 21 21 20 20 20 19 18 17 16 15 14 14 14 14 14 14
19 20 20 21 22 21 19 21 22 23 25 28 27 25 23 24 27 27 26 28 27 24 24 24 24 22 21 20 20 20 19 18 17 17 15 14 13 13 13 13 12 11
19 21 22 23 24 23 22 24 26 26 27 30 28 25 25 27 29 28 28 29 26 23 24 24 22 21 20 20 20 19 18 17 17 16 15 14 13 12 12 11 10 9
16 18 21 23 22 22 24 27 28 28 29 31 28 27 28 28 28 28 28 28 26 25 25 24 22 20 19 19 20 19 18 17 16 16 16 14 12 11 11 10 9 6
14 16 20 22 21 21 22 25 27 28 30 31 29 30 29 27 28 28 28 28 27 27 26 23 22 20 19 19 20 20 18 16 16 17 16 14 12 10 9 9 8 6
14 16 18 19 20 20 20 22 25 29 31 30 30 31 29 28 29 29 28 29 28 27 26 24 22 20 18 19 20 20 18 15 15 15 15 13 12 10 9 9 8 7
13 16 16 16 17 18 20 23 25 28 30 29 28 30 30 31 32 32 30 30 29 27 25 23 21 19 18 18 18 18 17 15 14 14 14 13 11 10 10 9 8 8
13 14 15 16 16 17 21 25 24 27 30 29 29 30 32 35 36 34 32 30 27 25 23 22 20 18 17 17 16 16 15 15 14 13 13 12 11 11 11 8 7 7
14 14 15 16 16 17 25 28 26 27 30 31 33 34 35 36 35 34 32 28 25 23 21 20 19 18 17 16 16 15 14 14 14 14 14 13 12 12 10 8 6 5
15 15 16 17 16 19 27 29 29 30 31 32 33 34 36 36 33 32 30 25 23 22 19 18 19 19 18 16 15 15 15 15 15 15 16 15 14 12 11 9 7 4
14 13 15 17 17 19 27 32 32 33 33 33 32 32 34 35 33 30 27 22 21 20 19 18 19 20 18 16 15 15 16 16 16 16 17 16 15 13 12 10 8 6
12 11 13 17 17 19 27 33 34 34 34 34 34 34 33 33 31 27 24 21 19 19 19 19 19 19 18 17 16 15 16 17 17 17 16 16 16 14 13 12 11 8
10 11 14 17 18 20 27 32 33 34 34 34 34 33 31 31 30 26 23 22 21 20 20 20 19 18 17 17 16 16 17 17 17 17 16 16 16 16 15 15 13 10
4 13 15 15 14 17 24 29 29 30 31 30 29 28 27 28 28 26 24 23 22 20 19 18 18 18 18 17 16 16 17 17 17 16 16 17 17 17 16 16 15 12
4 13 18 19 17 18 22 25 25 26 27 26 26 27 27 27 26 26 24 22 20 18 17 17 18 18 18 17 17 16 16 16 16 16 16 17 18 18 17 17 16 14
7 10 17 21 22 23 25 24 21 22 25 26 27 27 26 26 26 26 25 22 20 18 16 15 17 17 15 15 15 15 14 14 14 15 16 17 18 18 18 17 17 15
11 8 12 18 22 24 24 25 24 24 23 24 25 25 26 27 26 25 26 24 21 19 17 16 16 15 14 13 12 12 13 13 13 14 15 16 17 17 17 17 16 16
Wind_Direction
250 251 250 247 245 243 243 245 245 245 244 239 238 240 238 229 221 218 220 222 221 218 213 215 217 214 212 211 210 212 214 216 217 214 215 217 219 223 228 229 224 223
250 254 252 247 245 244 244 246 247 249 248 245 244 243 241 237 228 221 224 227 225 219 212 214 214 211 211 210 209 210 210 212 213 211 210 213 216 220 226 226 222 222
245 253 253 249 250 250 249 250 250 251 255 253 249 243 240 237 230 225 228 229 226 222 216 212 208 208 210 209 208 209 208 209 210 208 208 212 216 220 224 223 220 220
245 249 254 257 259 255 250 250 250 254 263 259 248 241 239 234 228 229 233 229 225 224 220 210 204 206 208 205 206 207 206 207 208 207 208 213 216 219 222 221 217 218
248 248 252 258 259 255 253 251 250 257 265 256 241 236 236 234 231 231 233 229 222 221 219 208 200 202 202 201 202 203 204 207 206 205 209 214 215 216 218 219 218 218
251 248 249 254 257 257 258 257 254 259 259 244 233 231 228 228 230 230 228 224 216 214 214 205 195 197 199 199 202 202 204 207 207 208 211 214 215 214 215 218 218 218
256 253 250 252 256 258 260 259 258 259 249 232 226 226 223 222 226 227 224 218 211 209 211 204 196 197 199 200 201 200 202 206 208 211 212 211 213 213 215 217 217 216
259 255 251 252 254 257 259 257 256 257 243 226 220 219 219 222 225 225 218 211 208 207 206 204 200 200 200 200 200 198 199 204 208 211 212 212 212 212 213 215 217 218
263 257 254 256 257 256 256 252 250 251 240 225 218 215 216 220 224 221 212 206 207 206 204 204 204 204 204 201 199 199 200 202 206 209 211 212 210 209 210 212 216 217
269 268 262 258 255 253 252 246 242 245 237 222 216 215 214 214 216 213 209 208 209 206 203 204 203 203 205 201 199 200 200 200 202 203 205 208 208 207 207 210 217 218
263 268 265 257 252 248 245 239 238 241 232 217 213 214 210 208 207 206 209 210 207 204 203 202 200 201 202 201 199 199 199 199 199 197 198 199 198 201 206 212 218 221
258 260 260 258 255 250 245 239 237 235 224 212 210 211 206 202 201 202 205 205 203 202 200 195 194 196 198 197 196 195 195 197 197 193 190 187 186 193 200 202 206 213
270 265 263 262 259 255 250 242 235 228 216 208 206 207 204 197 194 195 198 199 199 198 193 190 189 188 188 189 190 190 191 192 191 186 182 180 181 182 185 187 191 202
292 277 268 269 268 264 256 245 234 221 213 209 203 199 199 195 191 192 194 195 195 192 188 187 185 181 179 181 181 181 182 182 182 182 182 182 179 177 182 189 197 215
298 284 275 275 276 270 257 244 231 216 210 209 198 191 194 193 187 186 189 191 190 187 185 183 181 177 175 176 176 176 177 177 179 184 186 186 185 184 190 195 206 232
295 288 282 278 278 271 251 238 226 211 206 202 191 189 192 186 181 180 182 184 184 182 180 178 178 178 176 177 178 179 181 182 184 187 188 189 191 191 194 203 217 234
294 290 286 279 278 263 240 232 221 203 196 190 184 188 188 183 182 182 178 178 180 177 176 175 177 179 179 183 186 186 188 188 188 188 187 190 196 196 201 214 221 225
299 297 291 285 274 244 226 227 218 196 187 186 184 185 185 185 187 183 176 177 179 176 175 177 179 181 183 189 193 194 196 196 194 192 188 189 195 198 205 214 217 222
301 299 291 282 264 230 213 212 206 189 183 186 185 182 182 182 182 180 177 177 178 177 177 178 182 187 188 192 197 199 200 199 197 196 192 191 193 197 202 208 212 224
281 275 270 260 246 221 202 197 192 182 180 183 182 179 178 175 173 175 177 175 175 178 180 182 186 191 192 195 198 200 201 200 198 195 194 195 196 199 203 208 211 214
252 229 229 230 227 211 195 189 184 179 179 181 177 175 174 170 169 174 175 173 177 180 181 185 189 193 197 200 201 203 204 203 203 202 200 200 199 200 204 208 211 208
233 198 195 205 209 199 187 183 182 179 176 171 167 169 170 168 170 176 177 176 179 181 185 191 193 196 202 205 206 208 206 205 206 208 209 206 202 203 205 208 209 208
194 170 169 176 183 179 172 171 173 169 163 159 161 167 169 168 169 173 175 176 178 182 190 196 197 199 201 203 205 208 208 207 208 210 212 210 206 204 204 206 209 209
103 149 150 150 152 151 148 149 151 151 155 162 168 170 171 171 171 172 173 175 178 182 188 196 199 198 196 198 203 205 208 210 210 211 211 209 206 203 201 204 209 209
67 129 140 143 148 149 143 142 148 158 167 171 172 173 176 176 176 178 180 182 184 186 187 193 197 193 187 190 197 201 204 205 204 205 206 204 204 201 198 201 206 208
67 100 134 143 151 156 156 158 166 176 182 183 181 183 184 182 181 183 184 183 183 185 186 187 188 180 169 168 180 191 198 200 199 200 201 199 197 195 195 198 202 206